Simultaneous Nadir Overpasses (SNOs) Predictions

Prediction of SNOs between METOP-B and NOAA-19 Satellite Orbit:

Table of predicted SNOs for the next 14.0 days since TLE Epoch: 1/29/2017
Index Date (METOP-B) Time (METOP-B) Lat,Lon (METOP-B) SZA (METOP-B ) Date (NOAA-19) Time (NOAA-19) Lat,Lon (NOAA-19) SZA (NOAA-19 ) Distance(km) Time Diff (sec)
1 02/05/2017 16:15:41 -76.82, 119.53 87.54 02/05/2017 16:14:31 -76.79, 119.52 87.57 2.93 70
2 02/05/2017 17:06:22 76.78, -73.29 92.41 02/05/2017 17:05:30 76.77, -73.15 92.41 3.57 52
3 02/05/2017 17:57:03 -76.80, 94.11 87.58 02/05/2017 17:56:33 -76.80, 93.97 87.58 3.63 30
4 02/05/2017 18:47:44 76.76, -98.71 92.37 02/05/2017 18:47:32 76.79, -98.70 92.40 3.06 12
5 02/05/2017 19:38:25 -76.78, 68.69 87.63 02/05/2017 19:38:34 -76.77, 68.60 87.63 2.43 9
6
